Weather History for Ellington Field, TX

Change the Weather History Date:

Thursday, July 4, 2013

  Actual Average Record
Temperature  
Mean Temperature 86 °F -  
Max Temperature 98 °F 89 °F 100 °F (2012)
Min Temperature 75 °F 73 °F 71 °F (2008)
Cooling Degree Days 22    
Growing Degree Days 36 (Base 50)    
Moisture  
Dew Point 66 °F    
Average Humidity 53    
Maximum Humidity 73    
Minimum Humidity 32    
Precipitation  
Precipitation 0.00 in - - ()
Sea Level Pressure  
Sea Level Pressure 29.96 in    
Wind  
Wind Speed 2 mph (East)    
Max Wind Speed 10 mph    
Max Gust Speed 17 mph    
Visibility 10 miles    
Events      
Averages and records for this station are not official NWS values.
T = Trace of Precipitation, MM = Missing Value Source: NWS Daily Summary

Daily Weather History Graph

Daily Weather History Graph

Search for Another Location

Airport:

Trip Planner

Search our weather history database for the weather conditions in past years. The results will help you decide how hot, cold, wet, or windy it might be!

Date:

Astronomy

Jul. 04, 2013 Rise Set
Actual Time 6:25 AM CDT 8:24 PM CDT
Civil Twilight 5:58 AM CDT 8:51 PM CDT
Nautical Twilight 5:25 AM CDT 9:24 PM CDT
Astronomical Twilight 4:50 AM CDT 9:59 PM CDT
Moon 3:37 AM CDT (7/4) 5:34 PM CDT (7/4)
Length of Visible Light 14h 53m
Length of Day
13h 59m
Waning Crescent, 11% of the Moon is Illuminated
Jul 4
Waning Crescent
Jul 8
New
Jul 15
First Quarter
Jul 22
Full
Jul 29
Last Quarter

Hourly Weather History & Observations

Time (CDT) Temp. Heat Index Dew Point Humidity Pressure Visibility Wind Dir Wind Speed Gust Speed Precip Events Conditions
12:50 AM 78.8 °F - 64.4 °F 61% 29.98 in 10.0 mi Calm Calm - N/A   Partly Cloudy
1:50 AM 78.8 °F - 64.4 °F 61% 29.97 in 10.0 mi Calm Calm - N/A   Partly Cloudy
2:50 AM 77.0 °F - 62.6 °F 61% 29.98 in 10.0 mi Calm Calm - N/A   Partly Cloudy
3:50 AM 77.0 °F - 62.6 °F 61% 29.97 in 10.0 mi Calm Calm - N/A   Partly Cloudy
4:50 AM 77.0 °F - 62.6 °F 61% 29.96 in 10.0 mi Calm Calm - N/A   Partly Cloudy
5:50 AM 75.2 °F - 66.2 °F 73% 29.97 in 10.0 mi Calm Calm - N/A   Scattered Clouds
6:50 AM 77.0 °F - 66.2 °F 69% 29.97 in 10.0 mi Calm Calm - N/A   Scattered Clouds
7:50 AM 82.4 °F 87.2 °F 71.6 °F 70% 29.98 in 10.0 mi Calm Calm - N/A   Partly Cloudy
8:50 AM 84.2 °F 88.4 °F 69.8 °F 62% 29.99 in 10.0 mi North 4.6 mph - N/A   Partly Cloudy
9:50 AM 86.0 °F 90.4 °F 69.8 °F 58% 29.99 in 10.0 mi Calm Calm - N/A   Partly Cloudy
10:50 AM 87.8 °F 91.4 °F 68.0 °F 52% 29.99 in 10.0 mi Calm Calm - N/A   Scattered Clouds
11:50 AM 89.6 °F 93.4 °F 68.0 °F 49% 29.98 in 10.0 mi Variable 3.5 mph - N/A   Scattered Clouds
12:50 PM 91.4 °F 95.4 °F 68.0 °F 46% 29.97 in 10.0 mi Variable 4.6 mph - N/A   Mostly Cloudy
1:50 PM 91.4 °F 95.4 °F 68.0 °F 46% 29.96 in 10.0 mi Variable 3.5 mph - N/A   Mostly Cloudy
2:50 PM 95.0 °F 97.0 °F 64.4 °F 36% 29.94 in 10.0 mi NE 8.1 mph 17.3 mph N/A   Mostly Cloudy
3:50 PM 93.2 °F 94.9 °F 64.4 °F 38% 29.93 in 10.0 mi East 6.9 mph - N/A   Mostly Cloudy
4:50 PM 98.6 °F 101.0 °F 64.4 °F 32% 29.92 in 10.0 mi East 10.4 mph - N/A   Mostly Cloudy
5:50 PM 98.6 °F 101.0 °F 64.4 °F 32% 29.92 in 10.0 mi SE 6.9 mph - N/A   Mostly Cloudy
6:50 PM 93.2 °F 94.1 °F 62.6 °F 36% 29.92 in 10.0 mi ESE 8.1 mph - N/A   Mostly Cloudy
7:50 PM 87.8 °F 88.5 °F 62.6 °F 43% 29.92 in 10.0 mi SE 8.1 mph - N/A   Mostly Cloudy
8:50 PM 86.0 °F 87.3 °F 64.4 °F 48% 29.94 in 10.0 mi Calm Calm - N/A   Mostly Cloudy
9:50 PM 84.2 °F 85.6 °F 64.4 °F 51% 29.96 in 10.0 mi Calm Calm - N/A   Mostly Cloudy
10:50 PM 82.4 °F 83.9 °F 64.4 °F 54% 29.96 in 10.0 mi Calm Calm - N/A   Mostly Cloudy
11:50 PM 82.4 °F 87.2 °F 71.6 °F 70% 29.97 in 10.0 mi Calm Calm - N/A   Mostly Cloudy